Regional Weather Roundup
Issued by NWS Charleston, SC

Current Version | Previous Version | Graphics & Text | Print | Product List | Glossary On
Versions: 1 2 3 4 5 6 7 8 9 10 11 12 13 14 15 16 17 18 19 20 21 22 23 24 25 26 27 28 29 30 31 32 33 34 35 36 37 38 39 40 41 42 43 44 45 46 47 48 49 50
000
ASUS42 KCHS 042226
RWRCHS

REGIONAL WEATHER ROUNDUP
NATIONAL WEATHER SERVICE CHARLESTON SC
500 PM EST WED MAR 04 2015

NOTE: "FAIR" INDICATES FEW OR NO CLOUDS BELOW 12,000 FEET WITH NO
SIGNIFICANT WEATHER AND/OR OBSTRUCTIONS TO VISIBILITY.

NOT ALL STATIONS ARE QUALITY CONTROLLED BY THE NATIONAL
WEATHER SERVICE. USE DATA WITH CAUTION...ESPECIALLY
DEWPOINT OBSERVATIONS.

SCZ027-030-031-034>040-042>050-042300-
...SOUTHEAST SOUTH CAROLINA...

CITY           SKY/WX    TMP DP  RH WIND       PRES   REMARKS
N CHARLESTON   MOSUNNY   74  62  66 S18       30.00S
WATERFRONT PRK   N/A     68 N/A N/A SW13G21     N/A
MOUNT PLEASANT FAIR      72  64  78 S13G22    30.00S
PINOPOLIS      NOT AVBL
MONCKS CORNER  FAIR      77  63  61 S12       29.97S
SUMMERVILLE    FAIR      77  64  65 S8G17     29.98S
BEAUFORT MCAS  MOSUNNY   75  64  68 S9G21     29.99F
BEAUFORT ARPT  FAIR      68  63  83 S7        30.00S
HILTON HEAD IS SUNNY     70  63  78 S10G21    30.01F
WALTERBORO     CLOUDY    79  64  61 S13       29.98S
ALLENDALE      FAIR      81  57  44 SW8G15    29.96S

...SOUTHERN MIDLANDS AND PEE DEE...

CITY           SKY/WX    TMP DP  RH WIND       PRES   REMARKS
GEORGETOWN     NOT AVBL
KINGSTREE      NOT AVBL
ORANGEBURG     PTSUNNY   79  56  45 W14       29.95F
BARNWELL       FAIR      79  57  47 SW10G16   29.96F
AIKEN          FAIR      77  57  50 SW15G25   29.99F
MANNING        FAIR      81  52  36 SW8       29.95F
COLUMBIA       MOSUNNY   79  57  46 SW13      29.94S
SUMTER         MOSUNNY   79  56  44 SW16      29.92S
FLORENCE       MOSUNNY   80  58  46 SW13G23   29.92F
MYRTLE BEACH   MOSUNNY   66  57  72 S17G23    29.98F
N MYRTLE BEACH MOSUNNY   58  55  90 SW18G25   29.97F

$$

GAZ063-065-086>088-099>101-113>116-118-119-134>141-150-042300-
...SOUTHEAST GEORGIA...

CITY           SKY/WX    TMP DP  RH WIND       PRES   REMARKS
SAVANNAH ARPT  PTSUNNY   81  55  40 SW13      29.98F
HUNTER AAF     SUNNY     77  65  66 S14G20    29.97F
FORT STEWART   PTSUNNY   83  58  43 SW13G20   29.96F
STATESBORO     MOSUNNY   79  59  50 SW13G18   29.98S
SYLVANIA       MOCLDY    80  60  51 SW8       29.98F
CLAXTON        FAIR      81  59  47 CALM      29.98S

...CSRA...CENTRAL AND FAR SOUTHEAST GEORGIA...

CITY           SKY/WX    TMP DP  RH WIND       PRES   REMARKS
THOMSON        MOSUNNY   77  63  61 SW14G21   29.99F
AUGUSTA-BUSH   MOSUNNY   78  57  48 SW15      29.95F
AUGUSTA-DANIEL MOSUNNY   78  58  49 SW10G20   29.96F
SWAINSBORO     FAIR      81  41  24 SW9G18    29.98F
VIDALIA        MOSUNNY   81  59  47 SW13G20   29.99S
EASTMAN        MOCLDY    79  61  54 SW6       30.01F
HAZLEHURST     FAIR      81  59  47 SW10G16   29.98S
ALMA           MOSUNNY   80  58  46 SW15G24   29.99F
WAYCROSS       MOSUNNY   85  61  45 SW20      30.00S
JESUP          FAIR      86  61  42 SW8G16    29.99F
BAXLEY         FAIR      81  59  47 SW9       29.99S
BRUNSWICK      SUNNY     73  63  68 S13       30.02S
SAINT SIMONS   SUNNY     65  61  87 S13G21    30.02F

$$

SCZ027-028-034-036>038-045-046-048>050-GAZ119-141-042300-
...LAKE AND SUPPLEMENTAL COASTAL OBSERVATIONS...

STATION/POSITION TIME  TEMP    WIND        PRES    WAVE   SWELL
                       AIR SEA DIR/SP/G            HT/PER HT/PER/DIR
                 (UTC) (F)     (DEG/KT/KT) (MB)    (FT/S) (FT/S/D)
UPR LAKE MARION  NOT AVBL
WINYAH BAY       2045   72     210/ 17     1014.0
LAKE MURRAY      2200   73     240/ 15/ 18 1012.9F
ACE BASIN NERRS  NOT AVBL
FORT PULASKI     2200   66 51  200/  8/ 14 1016.6F
SAPELO ISLAND    2100   73     160/ 13     1017.0S

$$

ANZ835-935-AMZ111-154-330-350-352-354-370-450-454-472-042300-
...C-MAN AND BUOY OBSERVATIONS...

STATION/POSITION TIME  TEMP    WIND        PRES    WAVE   SWELL
                       AIR SEA DIR/SP/G            HT/PER HT/PER/DIR
                 (UTC) (F)     (DEG/KT/KT) (MB)    (FT/S) (FT/S/D)
BUOY 41004       2150   70 69  200/ 19/ 23 1015.8F   5/ 6   3/ 9
BUOY 41008       2150   61 54  170/ 16/ 17 1016.5F   3/ 9   2/100/ 9
FOLLY BEACH CMAN 2100   57     200/ 13/ 14 1016.8F
CAPERS NEARSHORE 2100   56     200/ 14/ 16   N/A
FRIPP NEARSHORE  2100   58     190/ 16/ 17 1016.4F


STATION/POSITION TIME  TEMP    WIND        PRES    WAVE   SWELL
                       AIR SEA DIR/SP/G            HT/PER HT/PER/DIR
                 (UTC) (F)     (DEG/KT/KT) (MB)    (FT/S) (FT/S/D)
5E ST. MARYS GA  2121      55                N/A     3/ 9
FRYING PAN BUOY  2150   67 62  210/ 16/ 17 1016.8F   5/ 6   3/130/ 9
BUOY 41025       NOT AVBL
CAPE LOOKOUT NC  2100   64     210/ 16/ 22 1015.4F
BUOY 41002       2050   73 73  220/ 17/ 21 1021.3    6/10   3/120/10
BUOY 41010       2120   74 75  170/ 14/ 16 1020.4F
ST AUGUSTINE FL  2100   63     170/ 13/ 14 1018.2F


$$


USA.gov is the U.S. government's official web portal to all federal, state and local government web resources and services.